| time (UTC) | temp C | wind direction | speed KPH | gust KPH | rain 1hr cm | rain 24hr cm | rain mn cm | humidity % | barometer mb |
| 20260510032529 | 25 | 117 | 0.0 | 0.0 | 0.00 | 0.00 | 0.10 | 77 | 1009.8 |
| 20260510032028 | 25 | 117 | 0.0 | 0.0 | 0.00 | 0.00 | 0.10 | 77 | 1009.7 |
| 20260510031531 | 25 | 117 | 1.6 | 0.0 | 0.00 | 0.00 | 0.10 | 76 | 1009.7 |
| 20260510031029 | 25 | 117 | 1.6 | 0.0 | 0.00 | 0.00 | 0.10 | 76 | 1009.7 |
| 20260510030528 | 26 | 117 | 1.6 | 0.0 | 0.00 | 0.00 | 0.10 | 75 | 1009.6 |
| 20260510030027 | 26 | 119 | 1.6 | 0.0 | 0.00 | 0.00 | 0.10 | 75 | 1009.5 |
| 20260510025529 | 26 | 119 | 1.6 | 0.0 | 0.00 | 0.00 | 0.10 | 75 | 1009.4 |
| 20260510025027 | 26 | 119 | 3.2 | 0.0 | 0.00 | 0.00 | 0.10 | 75 | 1009.3 |
| 20260510024527 | 26 | 114 | 3.2 | 0.0 | 0.00 | 0.00 | 0.10 | 74 | 1009.2 |
| 20260510024026 | 26 | 127 | 1.6 | 0.0 | 0.00 | 0.00 | 0.10 | 74 | 1009.1 |
| 20260510023528 | 26 | 137 | 1.6 | 0.0 | 0.00 | 0.00 | 0.10 | 74 | 1009.0 |
| 20260510023027 | 27 | 140 | 3.2 | 0.0 | 0.00 | 0.00 | 0.10 | 74 | 1009.0 |
| 20260510022527 | 27 | 221 | 3.2 | 0.0 | 0.00 | 0.00 | 0.10 | 74 | 1008.9 |
| 20260510022026 | 27 | 83 | 3.2 | 0.0 | 0.00 | 0.00 | 0.10 | 74 | 1008.9 |
| 20260510021603 | 27 | 154 | 3.2 | 0.0 | 0.00 | 0.00 | 0.10 | 73 | 1008.9 |
| 20260510021024 | 27 | 157 | 3.2 | 0.0 | 0.00 | 0.00 | 0.10 | 73 | 1008.8 |
| 20260510020524 | 27 | 165 | 3.2 | 0.0 | 0.00 | 0.00 | 0.10 | 73 | 1008.7 |
| 20260510020024 | 27 | 105 | 3.2 | 0.0 | 0.00 | 0.00 | 0.10 | 72 | 1008.6 |
| 20260510015525 | 27 | 164 | 4.8 | 0.0 | 0.00 | 0.00 | 0.10 | 72 | 1008.6 |
| 20260510015023 | 27 | 107 | 4.8 | 0.0 | 0.00 | 0.00 | 0.10 | 71 | 1008.5 |
| 20260510014533 | 27 | 117 | 1.6 | 0.0 | 0.00 | 0.00 | 0.10 | 70 | 1008.5 |
| 20260510014023 | 28 | 117 | 3.2 | 0.0 | 0.00 | 0.00 | 0.10 | 70 | 1008.5 |
| 20260510013526 | 28 | 109 | 3.2 | 0.0 | 0.00 | 0.00 | 0.10 | 69 | 1008.4 |
| 20260510013023 | 28 | 115 | 3.2 | 0.0 | 0.00 | 0.00 | 0.10 | 68 | 1008.3 |
| 20260510012523 | 28 | 144 | 3.2 | 0.0 | 0.00 | 0.00 | 0.10 | 68 | 1008.3 |
| 20260510012023 | 28 | 99 | 3.2 | 0.0 | 0.00 | 0.00 | 0.10 | 68 | 1008.2 |
| 20260510011524 | 28 | 117 | 3.2 | 0.0 | 0.00 | 0.00 | 0.10 | 67 | 1008.2 |
| 20260510011022 | 28 | 69 | 3.2 | 0.0 | 0.00 | 0.00 | 0.10 | 66 | 1008.2 |
| 20260510010522 | 28 | 83 | 1.6 | 0.0 | 0.00 | 0.00 | 0.10 | 66 | 1008.2 |
| 20260510010034 | 29 | 186 | 1.6 | 0.0 | 0.00 | 0.00 | 0.10 | 65 | 1008.1 |
| 20260510005522 | 29 | 186 | 3.2 | 0.0 | 0.00 | 0.00 | 0.10 | 65 | 1008.1 |
| 20260510005022 | 29 | 57 | 3.2 | 0.0 | 0.00 | 0.00 | 0.10 | 64 | 1008.0 |
| 20260510004522 | 30 | 111 | 3.2 | 0.0 | 0.00 | 0.00 | 0.10 | 63 | 1008.0 |
| 20260510004021 | 30 | 180 | 4.8 | 0.0 | 0.00 | 0.00 | 0.10 | 62 | 1008.0 |
| 20260510003521 | 30 | 103 | 4.8 | 0.0 | 0.00 | 0.00 | 0.10 | 61 | 1008.0 |
| 20260510003024 | 30 | 227 | 3.2 | 0.0 | 0.00 | 0.00 | 0.10 | 61 | 1007.9 |
| 20260510002522 | 30 | 131 | 4.8 | 0.0 | 0.00 | 0.00 | 0.10 | 60 | 1007.9 |
| 20260510002021 | 30 | 157 | 4.8 | 0.0 | 0.00 | 0.00 | 0.10 | 60 | 1007.8 |
| 20260510001521 | 30 | 158 | 3.2 | 0.0 | 0.00 | 0.00 | 0.10 | 59 | 1007.7 |
| 20260510001021 | 30 | 214 | 3.2 | 0.0 | 0.00 | 0.00 | 0.10 | 59 | 1007.7 |
| 20260510000520 | 30 | 207 | 4.8 | 0.0 | 0.00 | 0.00 | 0.10 | 58 | 1007.7 |
| 20260510000021 | 31 | 128 | 4.8 | 0.0 | 0.00 | 0.00 | 0.10 | 58 | 1007.6 |
| 20260509235521 | 31 | 107 | 3.2 | 0.0 | 0.00 | 0.00 | 0.10 | 57 | 1007.5 |
| 20260509235020 | 31 | 105 | 3.2 | 0.0 | 0.00 | 0.00 | 0.10 | 57 | 1007.5 |
| 20260509234522 | 31 | 130 | 3.2 | 0.0 | 0.00 | 0.00 | 0.10 | 56 | 1007.5 |
| 20260509234020 | 31 | 126 | 4.8 | 0.0 | 0.00 | 0.00 | 0.10 | 56 | 1007.6 |
| 20260509233519 | 31 | 73 | 3.2 | 0.0 | 0.00 | 0.00 | 0.10 | 55 | 1007.5 |
| 20260509233018 | 32 | 148 | 4.8 | 0.0 | 0.00 | 0.00 | 0.10 | 54 | 1007.5 |
| 20260509232518 | 32 | 128 | 3.2 | 0.0 | 0.00 | 0.00 | 0.10 | 54 | 1007.6 |
| 20260509232017 | 32 | 140 | 3.2 | 0.0 | 0.00 | 0.00 | 0.10 | 52 | 1007.5 |
| 20260509231516 | 32 | 25 | 3.2 | 0.0 | 0.00 | 0.00 | 0.10 | 53 | 1007.6 |
| 20260509231015 | 32 | 134 | 1.6 | 0.0 | 0.00 | 0.00 | 0.10 | 52 | 1007.6 |
| 20260509230615 | 32 | 78 | 1.6 | 0.0 | 0.00 | 0.00 | 0.10 | 51 | 1007.5 |
| 20260509230023 | 32 | 108 | 3.2 | 0.0 | 0.00 | 0.00 | 0.10 | 52 | 1007.5 |
| 20260509225515 | 32 | 138 | 3.2 | 0.0 | 0.00 | 0.00 | 0.10 | 53 | 1007.5 |
| 20260509225013 | 32 | 31 | 1.6 | 0.0 | 0.00 | 0.00 | 0.10 | 52 | 1007.6 |
| 20260509224517 | 32 | 82 | 3.2 | 0.0 | 0.00 | 0.00 | 0.10 | 54 | 1007.6 |
| 20260509224014 | 32 | 45 | 4.8 | 0.0 | 0.00 | 0.00 | 0.10 | 50 | 1007.5 |
| 20260509223514 | 32 | 136 | 3.2 | 0.0 | 0.00 | 0.00 | 0.10 | 49 | 1007.5 |
| 20260509223014 | 32 | 140 | 3.2 | 0.0 | 0.00 | 0.00 | 0.10 | 50 | 1007.6 |
| 20260509222513 | 32 | 113 | 3.2 | 0.0 | 0.00 | 0.00 | 0.10 | 46 | 1007.6 |
| 20260509222013 | 32 | 94 | 3.2 | 0.0 | 0.00 | 0.00 | 0.10 | 46 | 1007.5 |
| 20260509221513 | 31 | 98 | 3.2 | 0.0 | 0.00 | 0.00 | 0.10 | 49 | 1007.5 |
| 20260509221013 | 31 | 113 | 3.2 | 0.0 | 0.00 | 0.00 | 0.10 | 48 | 1007.5 |
| 20260509220511 | 31 | 71 | 3.2 | 0.0 | 0.00 | 0.00 | 0.10 | 49 | 1007.4 |
| 20260509220011 | 31 | 76 | 3.2 | 0.0 | 0.00 | 0.00 | 0.10 | 48 | 1007.5 |
| 20260509215511 | 31 | 146 | 3.2 | 0.0 | 0.00 | 0.00 | 0.10 | 48 | 1007.6 |
| 20260509215009 | 31 | 154 | 4.8 | 0.0 | 0.00 | 0.00 | 0.10 | 48 | 1007.7 |
| 20260509214509 | 31 | 202 | 4.8 | 0.0 | 0.00 | 0.00 | 0.10 | 49 | 1007.7 |
| 20260509214008 | 31 | 235 | 4.8 | 0.0 | 0.00 | 0.00 | 0.10 | 52 | 1007.8 |
| 20260509213509 | 31 | 84 | 4.8 | 0.0 | 0.00 | 0.00 | 0.10 | 51 | 1007.8 |
| 20260509213010 | 31 | 180 | 4.8 | 0.0 | 0.00 | 0.00 | 0.10 | 51 | 1007.9 |
| 20260509212506 | 30 | 202 | 4.8 | 0.0 | 0.00 | 0.00 | 0.10 | 54 | 1008.0 |
| 20260509212009 | 30 | 67 | 3.2 | 0.0 | 0.00 | 0.00 | 0.10 | 55 | 1008.1 |
| 20260509211506 | 30 | 5 | 3.2 | 0.0 | 0.00 | 0.00 | 0.10 | 57 | 1008.1 |
| 20260509211008 | 30 | 120 | 4.8 | 0.0 | 0.00 | 0.00 | 0.10 | 55 | 1008.2 |
| 20260509210504 | 30 | 115 | 4.8 | 0.0 | 0.00 | 0.00 | 0.10 | 56 | 1008.2 |
| 20260509210006 | 30 | 113 | 4.8 | 0.0 | 0.00 | 0.00 | 0.10 | 57 | 1008.3 |
| 20260509205506 | 30 | 202 | 6.4 | 0.0 | 0.00 | 0.00 | 0.10 | 57 | 1008.5 |
| 20260509205005 | 31 | 101 | 6.4 | 0.0 | 0.00 | 0.00 | 0.10 | 57 | 1008.4 |
| 20260509204504 | 31 | 146 | 4.8 | 0.0 | 0.00 | 0.00 | 0.10 | 57 | 1008.3 |
| 20260509204004 | 31 | 128 | 4.8 | 0.0 | 0.00 | 0.00 | 0.10 | 55 | 1008.3 |
| 20260509203503 | 30 | 164 | 3.2 | 0.0 | 0.00 | 0.00 | 0.10 | 58 | 1008.1 |
| 20260509203003 | 30 | 136 | 3.2 | 0.0 | 0.00 | 0.00 | 0.10 | 56 | 1008.2 |
| 20260509202502 | 29 | 97 | 3.2 | 0.0 | 0.00 | 0.00 | 0.10 | 57 | 1008.3 |
| 20260509202002 | 28 | 11 | 3.2 | 0.0 | 0.00 | 0.00 | 0.10 | 55 | 1008.4 |
| 20260509201503 | 28 | 128 | 4.8 | 0.0 | 0.00 | 0.00 | 0.10 | 63 | 1008.5 |
| 20260509201059 | 27 | 119 | 4.8 | 0.0 | 0.00 | 0.00 | 0.10 | 65 | 1008.8 |
| 20260509200559 | 25 | 51 | 4.8 | 0.0 | 0.00 | 0.00 | 0.10 | 76 | 1009.1 |
| 20260509200104 | 24 | 149 | 6.4 | 0.0 | 0.00 | 0.00 | 0.10 | 75 | 1009.3 |
| 20260509195600 | 24 | 122 | 8.0 | 0.0 | 0.00 | 0.00 | 0.10 | 73 | 1009.4 |
| 20260509195058 | 25 | 76 | 6.4 | 0.0 | 0.00 | 0.00 | 0.10 | 74 | 1009.3 |
| 20260509194602 | 25 | 5 | 9.7 | 0.0 | 0.00 | 0.00 | 0.10 | 73 | 1009.3 |
| 20260509194058 | 26 | 55 | 11.3 | 0.0 | 0.00 | 0.00 | 0.05 | 66 | 1009.2 |
| 20260509193558 | 27 | 5 | 9.7 | 0.0 | 0.00 | 0.00 | 0.00 | 55 | 1009.1 |
| 20260509193058 | 29 | 17 | 6.4 | 0.0 | 0.00 | 0.00 | 0.00 | 62 | 1009.1 |
| 20260509192601 | 31 | 50 | 3.2 | 0.0 | 0.00 | 0.00 | 0.00 | 63 | 1008.9 |
| 20260509192058 | 31 | 178 | 3.2 | 0.0 | 0.00 | 0.00 | 0.00 | 64 | 1008.8 |
| 20260509191607 | 31 | 144 | 3.2 | 0.0 | 0.00 | 0.00 | 0.00 | 63 | 1008.9 |
| 20260509191056 | 31 | 251 | 3.2 | 0.0 | 0.00 | 0.00 | 0.00 | 63 | 1008.9 |
| 20260509190559 | 32 | 202 | 4.8 | 0.0 | 0.00 | 0.00 | 0.00 | 61 | 1008.8 |
| 20260509190056 | 32 | 170 | 3.2 | 0.0 | 0.00 | 0.00 | 0.00 | 60 | 1008.8 |
| 20260509185556 | 32 | 237 | 3.2 | 0.0 | 0.00 | 0.00 | 0.00 | 59 | 1008.9 |
| 20260509185056 | 32 | 115 | 4.8 | 0.0 | 0.00 | 0.00 | 0.00 | 61 | 1009.0 |
| 20260509184604 | 32 | 232 | 4.8 | 0.0 | 0.00 | 0.00 | 0.00 | 62 | 1009.0 |
| 20260509184053 | 31 | 210 | 4.8 | 0.0 | 0.00 | 0.00 | 0.00 | 64 | 1009.1 |
| 20260509183552 | 31 | 153 | 3.2 | 0.0 | 0.00 | 0.00 | 0.00 | 64 | 1009.3 |
| 20260509183058 | 31 | 156 | 3.2 | 0.0 | 0.00 | 0.00 | 0.00 | 65 | 1009.4 |
| 20260509182551 | 32 | 140 | 3.2 | 0.0 | 0.00 | 0.00 | 0.00 | 62 | 1009.6 |
| 20260509182053 | 32 | 192 | 4.8 | 0.0 | 0.00 | 0.00 | 0.00 | 62 | 1009.6 |
| 20260509181553 | 32 | 248 | 4.8 | 0.0 | 0.00 | 0.00 | 0.00 | 62 | 1009.7 |
| 20260509181049 | 31 | 123 | 4.8 | 0.0 | 0.00 | 0.00 | 0.00 | 62 | 1009.7 |
| 20260509180547 | 31 | 160 | 4.8 | 0.0 | 0.00 | 0.00 | 0.00 | 64 | 1009.8 |
| 20260509180056 | 31 | 239 | 4.8 | 0.0 | 0.00 | 0.00 | 0.00 | 63 | 1009.8 |
| 20260509175549 | 31 | 271 | 4.8 | 0.0 | 0.00 | 0.00 | 0.00 | 65 | 1009.8 |
| 20260509175046 | 31 | 193 | 3.2 | 0.0 | 0.00 | 0.00 | 0.00 | 63 | 1009.9 |
| 20260509174547 | 31 | 224 | 3.2 | 0.0 | 0.00 | 0.00 | 0.00 | 68 | 1010.0 |
| 20260509174045 | 31 | 72 | 3.2 | 0.0 | 0.00 | 0.00 | 0.00 | 65 | 1010.2 |
| 20260509173544 | 30 | 142 | 3.2 | 0.0 | 0.00 | 0.00 | 0.00 | 66 | 1010.4 |
| 20260509173056 | 31 | 225 | 4.8 | 0.0 | 0.00 | 0.00 | 0.00 | 68 | 1010.4 |
| 20260509172544 | 31 | 217 | 4.8 | 0.0 | 0.00 | 0.00 | 0.00 | 69 | 1010.5 |
| 20260509172042 | 30 | 146 | 4.8 | 0.0 | 0.00 | 0.00 | 0.00 | 69 | 1010.5 |
| 20260509171543 | 30 | 215 | 4.8 | 0.0 | 0.00 | 0.00 | 0.00 | 69 | 1010.4 |
| 20260509171046 | 30 | 198 | 4.8 | 0.0 | 0.00 | 0.00 | 0.00 | 71 | 1010.3 |
| 20260509170541 | 30 | 153 | 4.8 | 0.0 | 0.00 | 0.00 | 0.00 | 69 | 1010.3 |
| 20260509170041 | 30 | 209 | 6.4 | 0.0 | 0.00 | 0.00 | 0.00 | 71 | 1010.3 |
| 20260509165539 | 30 | 201 | 4.8 | 0.0 | 0.00 | 0.00 | 0.00 | 71 | 1010.3 |
| 20260509165039 | 30 | 254 | 4.8 | 0.0 | 0.00 | 0.00 | 0.00 | 71 | 1010.4 |
| 20260509164539 | 29 | 182 | 6.4 | 0.0 | 0.00 | 0.00 | 0.00 | 71 | 1010.5 |
| 20260509164038 | 29 | 190 | 6.4 | 0.0 | 0.00 | 0.00 | 0.00 | 73 | 1010.5 |
| 20260509163538 | 29 | 155 | 6.4 | 0.0 | 0.00 | 0.00 | 0.00 | 73 | 1010.6 |
| 20260509163038 | 29 | 240 | 6.4 | 0.0 | 0.00 | 0.00 | 0.00 | 72 | 1010.6 |
| 20260509162538 | 30 | 215 | 4.8 | 0.0 | 0.00 | 0.00 | 0.00 | 72 | 1010.6 |
| 20260509162038 | 30 | 194 | 4.8 | 0.0 | 0.00 | 0.00 | 0.00 | 73 | 1010.6 |
| 20260509161549 | 29 | 202 | 3.2 | 0.0 | 0.00 | 0.00 | 0.00 | 73 | 1010.5 |
| 20260509161037 | 29 | 217 | 4.8 | 0.0 | 0.00 | 0.00 | 0.00 | 73 | 1010.6 |
| 20260509160535 | 28 | 182 | 4.8 | 0.0 | 0.00 | 0.00 | 0.00 | 77 | 1010.5 |
| 20260509160037 | 28 | 187 | 4.8 | 0.0 | 0.00 | 0.00 | 0.00 | 75 | 1010.6 |
| 20260509155532 | 28 | 220 | 4.8 | 0.0 | 0.00 | 0.00 | 0.00 | 77 | 1010.6 |
| 20260509155029 | 28 | 211 | 4.8 | 0.0 | 0.00 | 0.00 | 0.00 | 78 | 1010.7 |
| 20260509154528 | 27 | 178 | 4.8 | 0.0 | 0.00 | 0.00 | 0.00 | 80 | 1010.7 |
| 20260509154028 | 27 | 130 | 4.8 | 0.0 | 0.00 | 0.00 | 0.00 | 83 | 1010.7 |
| 20260509153525 | 27 | 234 | 4.8 | 0.0 | 0.00 | 0.00 | 0.00 | 84 | 1010.6 |
| 20260509153045 | 26 | 163 | 6.4 | 0.0 | 0.00 | 0.00 | 0.00 | 85 | 1010.6 |
| 20260509152524 | 26 | 141 | 6.4 | 0.0 | 0.00 | 0.00 | 0.00 | 86 | 1010.6 |
| 20260509152022 | 26 | 173 | 6.4 | 0.0 | 0.00 | 0.00 | 0.00 | 87 | 1010.7 |
| 20260509151521 | 26 | 163 | 4.8 | 0.0 | 0.00 | 0.00 | 0.00 | 89 | 1010.7 |
| 20260509151019 | 25 | 181 | 4.8 | 0.0 | 0.00 | 0.00 | 0.00 | 89 | 1010.7 |
| 20260509150518 | 25 | 192 | 4.8 | 0.0 | 0.00 | 0.00 | 0.00 | 90 | 1010.7 |
| 20260509150020 | 25 | 167 | 3.2 | 0.0 | 0.00 | 0.00 | 0.00 | 90 | 1010.6 |
| 20260509145519 | 24 | 234 | 3.2 | 0.0 | 0.00 | 0.00 | 0.00 | 91 | 1010.5 |
| 20260509145015 | 24 | 204 | 1.6 | 0.0 | 0.00 | 0.00 | 0.00 | 91 | 1010.6 |
| 20260509144515 | 24 | 169 | 3.2 | 0.0 | 0.00 | 0.00 | 0.00 | 91 | 1010.5 |
| 20260509144013 | 23 | 170 | 3.2 | 0.0 | 0.00 | 0.00 | 0.00 | 91 | 1010.5 |
| 20260509143514 | 23 | 176 | 3.2 | 0.0 | 0.00 | 0.00 | 0.00 | 91 | 1010.4 |
| 20260509143013 | 23 | 143 | 3.2 | 0.0 | 0.00 | 0.00 | 0.00 | 91 | 1010.3 |
| 20260509142513 | 23 | 207 | 3.2 | 0.0 | 0.00 | 0.00 | 0.00 | 91 | 1010.2 |
| 20260509142014 | 23 | 156 | 3.2 | 0.0 | 0.00 | 0.00 | 0.00 | 91 | 1010.2 |
| 20260509141513 | 23 | 137 | 3.2 | 0.0 | 0.00 | 0.00 | 0.00 | 91 | 1010.2 |
| 20260509141014 | 23 | 227 | 3.2 | 0.0 | 0.00 | 0.00 | 0.00 | 91 | 1010.0 |
| 20260509140510 | 23 | 136 | 3.2 | 0.0 | 0.00 | 0.00 | 0.00 | 91 | 1009.9 |
| 20260509140010 | 23 | 221 | 3.2 | 0.0 | 0.00 | 0.00 | 0.00 | 92 | 1010.1 |
| 20260509135513 | 23 | 128 | 1.6 | 0.0 | 0.00 | 0.00 | 0.00 | 92 | 1010.2 |
| 20260509135010 | 23 | 183 | 1.6 | 0.0 | 0.00 | 0.00 | 0.00 | 92 | 1010.1 |
| 20260509134509 | 23 | 193 | 1.6 | 0.0 | 0.00 | 0.00 | 0.00 | 92 | 1010.1 |
| 20260509134009 | 23 | 290 | 1.6 | 0.0 | 0.00 | 0.00 | 0.00 | 92 | 1010.3 |
| 20260509133509 | 23 | 290 | 3.2 | 0.0 | 0.00 | 0.00 | 0.00 | 92 | 1010.3 |
| 20260509133009 | 23 | 355 | 3.2 | 0.0 | 0.00 | 0.00 | 0.00 | 92 | 1010.5 |
| 20260509132512 | 23 | 308 | 3.2 | 0.0 | 0.00 | 0.00 | 0.00 | 92 | 1010.5 |
| 20260509132009 | 23 | 292 | 4.8 | 0.0 | 0.00 | 0.00 | 0.00 | 92 | 1010.4 |
| 20260509131508 | 23 | 87 | 4.8 | 0.0 | 0.00 | 0.00 | 0.00 | 92 | 1010.6 |
| 20260509131008 | 23 | 300 | 3.2 | 0.0 | 0.00 | 0.00 | 0.00 | 92 | 1010.7 |
| 20260509130508 | 22 | 329 | 1.6 | 0.0 | 0.00 | 0.00 | 0.00 | 92 | 1010.6 |
| 20260509130008 | 22 | 305 | 1.6 | 0.0 | 0.00 | 0.00 | 0.00 | 92 | 1010.3 |
| 20260509125509 | 22 | 320 | 1.6 | 0.0 | 0.00 | 0.00 | 0.00 | 92 | 1010.3 |
| 20260509125007 | 22 | 320 | 1.6 | 0.0 | 0.00 | 0.00 | 0.00 | 92 | 1010.4 |
| 20260509124509 | 22 | 38 | 0.0 | 0.0 | 0.00 | 0.00 | 0.00 | 92 | 1010.2 |
| 20260509124007 | 22 | 38 | 0.0 | 0.0 | 0.00 | 0.00 | 0.00 | 92 | 1010.1 |
| 20260509123507 | 22 | 38 | 0.0 | 0.0 | 0.00 | 0.00 | 0.00 | 92 | 1010.0 |
| 20260509123007 | 22 | 38 | 0.0 | 0.0 | 0.00 | 0.00 | 0.00 | 92 | 1010.0 |
| 20260509122506 | 22 | 38 | 1.6 | 0.0 | 0.00 | 0.00 | 0.00 | 92 | 1010.2 |
| 20260509122006 | 22 | 38 | 1.6 | 0.0 | 0.00 | 0.00 | 0.00 | 92 | 1010.4 |
| 20260509121506 | 22 | 178 | 1.6 | 0.0 | 0.00 | 0.00 | 0.00 | 92 | 1010.2 |
| 20260509121010 | 22 | 121 | 1.6 | 0.0 | 0.00 | 0.00 | 0.00 | 92 | 1010.0 |
| 20260509120506 | 22 | 57 | 1.6 | 0.0 | 0.00 | 0.00 | 0.00 | 91 | 1010.2 |
| 20260509120006 | 22 | 334 | 1.6 | 0.0 | 0.00 | 0.00 | 0.00 | 91 | 1010.3 |
| 20260509115505 | 22 | 334 | 3.2 | 0.0 | 0.00 | 0.00 | 0.00 | 91 | 1010.4 |
| 20260509115007 | 22 | 335 | 1.6 | 0.0 | 0.00 | 0.00 | 0.00 | 91 | 1010.4 |
| 20260509114504 | 22 | 349 | 1.6 | 0.0 | 0.00 | 0.00 | 0.00 | 91 | 1010.1 |
| 20260509114004 | 22 | 86 | 1.6 | 0.0 | 0.00 | 0.00 | 0.00 | 91 | 1010.5 |
| 20260509113504 | 22 | 338 | 1.6 | 0.0 | 0.00 | 0.00 | 0.00 | 91 | 1010.7 |
| 20260509113004 | 22 | 5 | 0.0 | 0.0 | 0.00 | 0.00 | 0.00 | 91 | 1011.0 |
| 20260509112504 | 22 | 5 | 1.6 | 0.0 | 0.00 | 0.00 | 0.00 | 91 | 1011.1 |
| 20260509112006 | 22 | 5 | 1.6 | 0.0 | 0.00 | 0.00 | 0.00 | 91 | 1011.0 |
| 20260509111504 | 22 | 350 | 1.6 | 0.0 | 0.00 | 0.00 | 0.00 | 91 | 1011.0 |
| 20260509111003 | 22 | 21 | 0.0 | 0.0 | 0.00 | 0.00 | 0.00 | 91 | 1011.1 |
| 20260509110506 | 22 | 21 | 0.0 | 0.0 | 0.00 | 0.00 | 0.00 | 91 | 1011.1 |
| 20260509110004 | 22 | 21 | 1.6 | 0.0 | 0.00 | 0.00 | 0.00 | 91 | 1011.1 |
| 20260509105503 | 22 | 21 | 0.0 | 0.0 | 0.00 | 0.00 | 0.00 | 91 | 1011.1 |
| 20260509105003 | 22 | 68 | 0.0 | 0.0 | 0.00 | 0.00 | 0.00 | 91 | 1011.2 |
| 20260509104503 | 22 | 68 | 0.0 | 0.0 | 0.00 | 0.00 | 0.00 | 91 | 1011.2 |
| 20260509104002 | 22 | 68 | 1.6 | 0.0 | 0.00 | 0.00 | 0.00 | 91 | 1011.2 |
| 20260509103503 | 22 | 5 | 3.2 | 0.0 | 0.00 | 0.00 | 0.00 | 91 | 1011.3 |
| 20260509103002 | 22 | 355 | 3.2 | 0.0 | 0.00 | 0.00 | 0.00 | 91 | 1011.4 |
| 20260509102502 | 22 | 19 | 3.2 | 0.0 | 0.00 | 0.00 | 0.00 | 91 | 1011.4 |
| 20260509102001 | 23 | 344 | 1.6 | 0.0 | 0.00 | 0.00 | 0.00 | 91 | 1011.2 |
| 20260509101628 | 23 | 16 | 1.6 | 0.0 | 0.00 | 0.00 | 0.00 | 91 | 1011.1 |
| 20260509101058 | 22 | 20 | 0.0 | 0.0 | 0.00 | 0.00 | 0.00 | 91 | 1010.9 |
| 20260509100557 | 22 | 46 | 0.0 | 0.0 | 0.00 | 0.00 | 0.00 | 91 | 1010.7 |
| 20260509100059 | 22 | 46 | 0.0 | 0.0 | 0.00 | 0.00 | 0.00 | 91 | 1010.3 |
| 20260509095557 | 22 | 46 | 0.0 | 0.0 | 0.00 | 0.00 | 0.00 | 91 | 1010.0 |
| 20260509095057 | 22 | 46 | 0.0 | 0.0 | 0.00 | 0.00 | 0.00 | 91 | 1009.9 |
| 20260509094602 | 22 | 46 | 0.0 | 0.0 | 0.00 | 0.00 | 0.00 | 91 | 1010.0 |
| 20260509094056 | 22 | 46 | 0.0 | 0.0 | 0.00 | 0.00 | 0.00 | 91 | 1010.1 |
| 20260509093556 | 22 | 46 | 1.6 | 0.0 | 0.00 | 0.00 | 0.00 | 91 | 1010.1 |
| 20260509093059 | 22 | 46 | 0.0 | 0.0 | 0.00 | 0.00 | 0.00 | 91 | 1010.1 |
| 20260509092556 | 22 | 46 | 1.6 | 0.0 | 0.00 | 0.00 | 0.00 | 91 | 1009.9 |
| 20260509092059 | 22 | 46 | 1.6 | 0.0 | 0.00 | 0.00 | 0.00 | 91 | 1009.8 |
| 20260509091557 | 22 | 46 | 1.6 | 0.0 | 0.00 | 0.00 | 0.00 | 91 | 1009.9 |
| 20260509091056 | 22 | 21 | 0.0 | 0.0 | 0.00 | 0.00 | 0.00 | 91 | 1009.9 |
| 20260509090555 | 22 | 53 | 0.0 | 0.0 | 0.00 | 0.00 | 0.00 | 91 | 1010.0 |
| 20260509090101 | 22 | 53 | 0.0 | 0.0 | 0.00 | 0.00 | 0.00 | 91 | 1009.9 |
| 20260509085554 | 22 | 53 | 0.0 | 0.0 | 0.00 | 0.00 | 0.00 | 91 | 1009.9 |
| 20260509085054 | 22 | 53 | 0.0 | 0.0 | 0.00 | 0.00 | 0.00 | 90 | 1009.9 |
| 20260509084601 | 22 | 53 | 0.0 | 0.0 | 0.00 | 0.00 | 0.00 | 90 | 1010.0 |
| 20260509084055 | 22 | 53 | 0.0 | 0.0 | 0.00 | 0.00 | 0.00 | 90 | 1009.9 |
| 20260509083554 | 22 | 53 | 0.0 | 0.0 | 0.00 | 0.00 | 0.00 | 90 | 1010.0 |
| 20260509083107 | 22 | 53 | 0.0 | 0.0 | 0.00 | 0.00 | 0.00 | 90 | 1010.1 |
| 20260509082555 | 22 | 53 | 1.6 | 0.0 | 0.00 | 0.00 | 0.00 | 90 | 1010.2 |
| 20260509082057 | 22 | 53 | 1.6 | 0.0 | 0.00 | 0.00 | 0.00 | 90 | 1010.5 |
| 20260509081554 | 22 | 53 | 1.6 | 0.0 | 0.00 | 0.00 | 0.00 | 90 | 1010.5 |
| 20260509081054 | 22 | 53 | 1.6 | 0.0 | 0.00 | 0.00 | 0.00 | 90 | 1010.4 |
| 20260509080553 | 22 | 30 | 1.6 | 0.0 | 0.00 | 0.00 | 0.00 | 90 | 1010.2 |
| 20260509080053 | 22 | 53 | 1.6 | 0.0 | 0.00 | 0.00 | 0.00 | 90 | 1010.2 |
| 20260509075553 | 22 | 56 | 1.6 | 0.0 | 0.00 | 0.00 | 0.00 | 90 | 1010.4 |
| 20260509075053 | 22 | 22 | 1.6 | 0.0 | 0.00 | 0.00 | 0.00 | 90 | 1010.3 |
| 20260509074610 | 22 | 91 | 3.2 | 0.0 | 0.00 | 0.00 | 0.00 | 90 | 1010.2 |
| 20260509074052 | 22 | 93 | 1.6 | 0.0 | 0.00 | 0.00 | 0.00 | 90 | 1010.3 |
| 20260509073554 | 22 | 244 | 1.6 | 0.0 | 0.00 | 0.00 | 0.00 | 90 | 1010.3 |
| 20260509073105 | 22 | 244 | 1.6 | 0.0 | 0.00 | 0.00 | 0.00 | 90 | 1010.4 |
| 20260509072552 | 22 | 244 | 1.6 | 0.0 | 0.00 | 0.00 | 0.00 | 90 | 1010.4 |
| 20260509072051 | 22 | 244 | 0.0 | 0.0 | 0.00 | 0.00 | 0.00 | 89 | 1010.5 |
| 20260509071557 | 22 | 244 | 0.0 | 0.0 | 0.00 | 0.00 | 0.00 | 89 | 1010.5 |
| 20260509071052 | 22 | 244 | 0.0 | 0.0 | 0.00 | 0.00 | 0.00 | 89 | 1010.5 |
| 20260509070550 | 22 | 244 | 0.0 | 0.0 | 0.00 | 0.00 | 0.00 | 89 | 1010.5 |
| 20260509070055 | 22 | 244 | 0.0 | 0.0 | 0.00 | 0.00 | 0.00 | 89 | 1010.5 |
| 20260509065548 | 22 | 244 | 1.6 | 0.0 | 0.00 | 0.00 | 0.00 | 89 | 1010.6 |
| 20260509065048 | 22 | 244 | 1.6 | 0.0 | 0.00 | 0.00 | 0.00 | 89 | 1010.4 |
| 20260509064548 | 22 | 126 | 1.6 | 0.0 | 0.00 | 0.00 | 0.00 | 89 | 1010.2 |
| 20260509064046 | 22 | 126 | 3.2 | 0.0 | 0.00 | 0.00 | 0.00 | 89 | 1010.1 |
| 20260509063547 | 22 | 86 | 3.2 | 0.0 | 0.00 | 0.00 | 0.00 | 89 | 1010.2 |
| 20260509063057 | 22 | 113 | 1.6 | 0.0 | 0.00 | 0.00 | 0.00 | 89 | 1010.3 |
| 20260509062546 | 23 | 175 | 3.2 | 0.0 | 0.00 | 0.00 | 0.00 | 89 | 1010.4 |
| 20260509062046 | 23 | 196 | 3.2 | 0.0 | 0.00 | 0.00 | 0.00 | 88 | 1010.5 |
| 20260509061545 | 23 | 111 | 3.2 | 0.0 | 0.00 | 0.00 | 0.00 | 88 | 1010.2 |
| 20260509061045 | 23 | 187 | 4.8 | 0.0 | 0.00 | 0.00 | 0.00 | 88 | 1010.1 |
| 20260509060547 | 23 | 192 | 3.2 | 0.0 | 0.00 | 0.00 | 0.00 | 88 | 1010.0 |
| 20260509060101 | 23 | 202 | 4.8 | 0.0 | 0.00 | 0.00 | 0.00 | 88 | 1009.9 |
| 20260509055544 | 23 | 183 | 4.8 | 0.0 | 0.00 | 0.00 | 0.00 | 88 | 1010.0 |
| 20260509055041 | 23 | 107 | 4.8 | 0.0 | 0.00 | 0.00 | 0.00 | 87 | 1010.2 |
| 20260509054541 | 23 | 173 | 4.8 | 0.0 | 0.00 | 0.00 | 0.00 | 87 | 1010.1 |
| 20260509054040 | 23 | 256 | 3.2 | 0.0 | 0.00 | 0.00 | 0.00 | 87 | 1010.1 |
| 20260509053540 | 23 | 200 | 4.8 | 0.0 | 0.00 | 0.00 | 0.00 | 87 | 1010.0 |
| 20260509053052 | 23 | 184 | 4.8 | 0.0 | 0.00 | 0.00 | 0.00 | 87 | 1009.9 |
| 20260509052538 | 23 | 213 | 3.2 | 0.0 | 0.00 | 0.00 | 0.00 | 87 | 1009.7 |
| 20260509052037 | 23 | 99 | 3.2 | 0.0 | 0.00 | 0.00 | 0.00 | 87 | 1009.6 |
| 20260509051537 | 23 | 111 | 3.2 | 0.0 | 0.00 | 0.00 | 0.00 | 87 | 1009.6 |
| 20260509051036 | 23 | 226 | 3.2 | 0.0 | 0.00 | 0.00 | 0.00 | 87 | 1009.6 |
| 20260509050537 | 23 | 120 | 1.6 | 0.0 | 0.00 | 0.00 | 0.00 | 86 | 1009.6 |
| 20260509050034 | 23 | 215 | 3.2 | 0.0 | 0.00 | 0.00 | 0.00 | 86 | 1009.6 |
| 20260509045535 | 23 | 165 | 3.2 | 0.0 | 0.00 | 0.00 | 0.00 | 86 | 1009.6 |
| 20260509045034 | 23 | 149 | 1.6 | 0.0 | 0.00 | 0.00 | 0.00 | 86 | 1009.6 |
| 20260509044534 | 23 | 178 | 1.6 | 0.0 | 0.00 | 0.00 | 0.00 | 86 | 1009.6 |
| 20260509044034 | 23 | 115 | 1.6 | 0.0 | 0.00 | 0.00 | 0.00 | 85 | 1009.6 |
| 20260509043533 | 23 | 188 | 1.6 | 0.0 | 0.00 | 0.00 | 0.00 | 85 | 1009.7 |
| 20260509043041 | 23 | 240 | 3.2 | 0.0 | 0.00 | 0.00 | 0.00 | 85 | 1009.6 |
| 20260509042534 | 23 | 164 | 3.2 | 0.0 | 0.00 | 0.00 | 0.00 | 85 | 1009.7 |
| 20260509042033 | 23 | 178 | 1.6 | 0.0 | 0.00 | 0.00 | 0.00 | 85 | 1009.9 |
| 20260509041534 | 23 | 211 | 3.2 | 0.0 | 0.00 | 0.00 | 0.00 | 85 | 1009.8 |
| 20260509041033 | 24 | 251 | 3.2 | 0.0 | 0.00 | 0.00 | 0.00 | 85 | 1009.9 |
| 20260509040532 | 24 | 215 | 1.6 | 0.0 | 0.00 | 0.00 | 0.00 | 85 | 1009.9 |
| 20260509040039 | 24 | 198 | 3.2 | 0.0 | 0.00 | 0.00 | 0.00 | 85 | 1009.9 |
| 20260509035533 | 24 | 153 | 3.2 | 0.0 | 0.00 | 0.00 | 0.00 | 84 | 1009.9 |
| 20260509035035 | 24 | 181 | 3.2 | 0.0 | 0.00 | 0.00 | 0.00 | 84 | 1009.8 |
| 20260509034532 | 24 | 164 | 1.6 | 0.0 | 0.00 | 0.00 | 0.00 | 84 | 1009.7 |
| 20260509034032 | 24 | 159 | 1.6 | 0.0 | 0.00 | 0.00 | 0.00 | 84 | 1009.7 |
| 20260509033531 | 24 | 215 | 1.6 | 0.0 | 0.00 | 0.00 | 0.00 | 84 | 1009.7 |
| 20260509033033 | 24 | 167 | 1.6 | 0.0 | 0.00 | 0.00 | 0.00 | 84 | 1009.8 |